Location: Newark
(3.0500°N, 36.0167°E)
Time: 00:58:14
(UTC+00:00)

A-11 Canister half - Pass Details

Date: 27 August 2019
Orbit: 1527 x 1682 km, 47.3° (Epoch: 17 October)

Event Time Altitude Azimuth Distance (km) Brightness Sun altitude
Rises 06:41:07 0° 245° (WSW) 4,727 11.2 45.6°
Reaches altitude 10° 06:44:39 10° 255° (WSW) 3,763 10.7 46.5°
Maximum altitude 06:52:41 30° 313° (NW) 2,556 10.3 48.5°
Drops below altitude 10° 07:00:58 10° 11° (N) 3,862 11.4 50.5°
Sets 07:04:42 0° 22° (NNE) 4,869 11.9 51.4°
